Location: *
(55.5817°S, 142.4781°W)
Time: 08:40:40
(UTC+00:00)

Cosmos 2360 - Pass Details

Date: 29 April 2025
Orbit: 845 x 856 km, 70.8° (Epoch: 18 May)

Event Time Altitude Azimuth Distance (km) Brightness Sun altitude
Exits shadow 13:36:00 62° 7° (N) 967 4.3 -27.6°
Maximum altitude 13:36:51 72° 60° (ENE) 904 4.3 -27.5°
Drops below altitude 10° 13:42:35 10° 143° (SE) 2,507 7.3 -26.7°
Sets 13:45:04 0° 144° (SE) 3,449 8.1 -26.4°
